Regional Weather Roundup
Issued by NWS

Home | Current Version | Previous Version | Graphics & Text | Print | Product List | Glossary Off
Versions: 1 2 3 4 5 6 7 8 9 10 11 12 13 14 15 16 17 18 19 20 21 22 23 24 25 26 27 28 29 30 31 32 33 34 35 36 37 38 39 40 41 42 43 44 45 46 47 48 49 50

000
ASUS45 KBOI 010010
RWRID
WEATHER ROUNDUP FOR IDAHO
NATIONAL WEATHER SERVICE BOISE ID
500 PM MST SAT JAN 31 2015

NOTE: "FAIR" INDICATES FEW OR NO CLOUDS BELOW 12000 FEET
WITH NO SIGNIFICANT WEATHER AND/OR OBSTRUCTIONS TO VISIBILITY

IDZ012-014-010100-
SOUTHWEST IDAHO


CITY           SKY/WX    TMP DP  RH WIND       PRES   REMARKS
BOISE          CLEAR     47  30  51 NW12      30.13F
CALDWELL       CLEAR     52  30  43 N6        30.16F
MOUNTAIN HOME  CLEAR     47  33  57 NW9       30.12F
$$

IDZ016-017-010100-
SOUTHCENTRAL IDAHO


CITY           SKY/WX    TMP DP  RH WIND       PRES   REMARKS
BURLEY         CLEAR     39  28  64 W13G18    30.12R WCI  31
JEROME         CLOUDY    34  28  79 W12       30.14R WCI  25
TWIN FALLS     CLEAR     39  30  70 W10       30.14R WCI  32
$$

IDZ019>023-010100-
SOUTHEAST IDAHO


CITY           SKY/WX    TMP DP  RH WIND       PRES   REMARKS
IDAHO FALLS    CLOUDY    34  27  75 SW9       30.11R WCI  27
POCATELLO      PTCLDY    36  30  79 W12       30.12R WCI  28
REXBURG        CLOUDY    29  25  85 W3        30.10R
$$

IDZ006-010-011-018-031-032-010100-
CENTRAL IDAHO MOUNTAINS


CITY           SKY/WX    TMP DP  RH WIND       PRES   REMARKS
MCCALL         CLEAR     40  18  41 W12       30.10F WCI  33
HAILEY         PTCLDY    25  25 100 SE5       30.11R WCI  19
STANLEY          N/A     27  10  49 CALM      30.10S
SALMON         CLEAR     27  18  69 NE5       30.18S WCI  21
CHALLIS        CLEAR     30  21  69 N6        30.13S WCI  24
$$

IDZ002-004-006-007-026-010100-
NORTHERN IDAHO


CITY           SKY/WX    TMP DP  RH WIND       PRES   REMARKS
LEWISTON       CLOUDY    37  30  75 W3        30.31R
LOWELL           N/A     37  27  67 VRB3      30.30F
COEUR D`ALENE  CLOUDY    34  27  75 CALM      30.27R
MULLAN PASS    FOG       23  19  85 CALM      30.10S VSB 1/2
$$



USA.gov is the U.S. government's official web portal to all federal, state and local government web resources and services.